Location: Rainham
(51.5000°N, 0.1833°E)
Time: 00:21:16
(UTC+00:00)

Daily predictions for brighter satellites

Satellite Brightness Start Highest point End
(mag) Time Altitude Azimuth Time Altitude Azimuth Time Altitude Azimuth
Cosmos 2344 4.4 00:15:41 43° N 00:15:41 43° N 00:23:03 10° NE
Cosmos 1980 Rocket 4.0 01:29:08 10° NNW 01:41:01 - ESE 01:32:42 27° NNE
SL-16 R/B 4.4 01:39:25 17° NNW 01:39:25 17° NNW 01:42:16 10° NNE
ATLAS 5 CENTAUR R/B 4.4 01:41:57 16° NNE 01:41:57 16° NNE 01:43:29 10° NE
SL-16 R/B 3.9 01:51:00 31° NNW 01:51:00 31° NNW 01:54:06 10° NNW
Resurs 1-4 Rocket 3.6 02:00:32 10° NNE 02:03:14 31° NNE 02:03:14 31° NNE
IDEFIX/ARIANE 42P 3.9 02:02:25 10° NNE 02:05:39 36° NE 02:05:39 36° NE
Cosmos 1833 Rocket 3.8 02:13:00 39° ENE 02:13:00 39° ENE 02:17:11 10° NE
CZ-2D R/B 3.4 02:16:00 10° N 02:18:59 34° N 02:18:59 34° N
CENTAUR R/B 4.3 02:27:14 18° SE 02:29:08 20° ESE 02:33:50 10° ENE
Lacrosse 4 Rocket 3.6 02:30:46 24° NNE 02:31:16 25° NE 02:34:55 10° E
Cosmos 2082 Rocket 3.5 02:38:49 29° SE 02:39:48 31° ESE 02:44:40 10° NE
ADEOS II 2.9 02:38:51 10° NNE 02:42:28 44° N 02:42:28 44° N
Cosmos 1934 Rocket 4.1 02:48:43 66° NNW 02:48:43 66° NNW 02:54:20 10° N
CZ-2C R/B 4.2 02:45:01 10° NE 02:49:16 28° E 02:51:08 22° SE
Cosmos 1624 Rocket 4.4 02:50:31 60° E 02:50:31 60° E 02:55:28 10° NNE
USA 306 4.3 03:00:25 35° ENE 03:00:25 35° ENE 03:02:51 10° ENE
COSMOS 2406 3.6 03:01:52 52° SE 03:02:37 57° ESE 03:08:10 10° NE
Cosmos 1151 Rocket 4.1 03:06:28 40° NNE 03:06:28 40° NNE 03:09:17 10° NNE
Cosmos 1371 Rocket 4.0 03:06:18 79° NE 03:06:18 79° NE 03:11:17 10° NNE
Cosmos 1605 Rocket 3.7 03:06:06 79° SW 03:06:25 82° W 03:12:34 10° N
Cosmos 1535 Rocket 4.4 03:07:34 64° WNW 03:07:34 64° WNW 03:13:23 10° N
ATLAS CENTAUR R/B 2.0 03:08:06 66° ENE 03:08:06 66° ENE 03:12:22 10° NE
MSX 3.9 03:05:26 10° N 03:10:47 59° NW 03:10:47 59° NW
Cosmos 1328 Rocket 4.0 03:12:11 59° ENE 03:12:11 59° ENE 03:16:19 10° NNE
Cosmos 2322 Rocket 3.9 03:07:05 10° NNW 03:12:13 33° NE 03:17:17 10° ESE
Meteor 1-11 Rocket 3.7 03:10:04 10° NNW 03:16:05 85° W 03:18:13 42° S
Cosmos 1980 Rocket 4.0 03:12:56 10° NW 03:23:06 15° SSE 03:24:04 10° SSE
COSMOS 2455 4.3 03:14:15 10° NNW 03:19:45 35° NE 03:25:13 10° E
Cosmos 1850 Rocket 4.2 03:19:04 10° NNW 03:24:25 71° ENE 03:29:45 10° SSE
USA 308 3.2 03:25:30 61° NE 03:25:30 61° NE 03:28:58 10° ENE
ATLAS 5 CENTAUR R/B 3.8 03:23:23 15° NNW 03:25:47 21° NNE 03:29:50 10° ENE
Cosmos 44 Rocket 3.3 03:26:24 66° SSE 03:26:41 67° SE 03:31:22 10° NE
Meteor 2-6 Rocket 4.2 03:27:11 58° WNW 03:27:11 58° WNW 03:32:37 10° N
CBERS-1 4.0 03:27:17 10° NNE 03:32:27 83° ESE 03:33:56 48° S
Cosmos 2056 Rocket 3.4 03:35:21 63° WNW 03:35:35 64° WNW 03:40:42 10° NNE
Cosmos 2173 Rocket 4.2 03:33:20 13° S 03:38:45 69° E 03:44:48 10° NNE
Cosmos 1420 Rocket 3.9 03:38:26 62° WSW 03:39:04 69° WNW 03:44:16 10° NNE
Cosmos 1346 Rocket 3.4 03:40:21 45° NNW 03:40:21 45° NNW 03:43:17 10° N
Cosmos 1515 Rocket 4.0 03:37:57 32° SSE 03:39:52 62° E 03:44:18 10° NNE
IRS-1D 3.6 03:37:22 10° N 03:42:32 54° WNW 03:43:03 52° W
ALOS 2.1 03:37:51 10° NNE 03:42:34 86° WNW 03:43:37 54° SSW
Cosmos 2278 3.5 03:37:03 10° NNW 03:42:44 78° WSW 03:48:22 10° SSE
SL-16 R/B 2.7 03:37:33 10° NNW 03:43:12 61° NE 03:48:49 10° SE
Cosmos 1461 3.8 03:42:22 36° SSE 03:43:19 43° ESE 03:47:19 10° NE
Cosmos 1470 Rocket 3.7 03:39:52 10° NNW 03:43:30 56° NW 03:43:30 56° NW
Resurs 1-4 Rocket 3.9 03:41:33 10° NNW 03:44:18 17° NW 03:44:18 17° NW
USA 305 2.8 03:44:57 65° NNW 03:45:08 66° N 03:49:15 10° ENE
IDEFIX/ARIANE 42P 3.8 03:42:35 10° N 03:46:27 26° NW 03:46:27 26° NW
BREEZE-M R/B 4.4 03:46:08 41° W 03:48:39 79° S 04:01:11 10° E
FENGYUN 3A 3.6 03:44:23 10° N 03:49:45 69° WNW 03:51:35 41° SW
NOSS 3-3 (A) 4.4 03:42:24 10° NW 03:49:47 80° SW 03:58:15 10° SE
NOSS 3-3 (C) 4.4 03:42:30 10° NW 03:49:53 81° SW 03:58:22 10° SE
METEOR-M 4.4 03:46:35 10° NNE 03:51:57 70° ESE 03:56:56 12° S
SJ 16-02 4.4 03:52:49 10° NNE 03:54:34 12° NE 03:56:18 10° ENE
Cosmos 1833 Rocket 3.2 03:54:43 37° WNW 03:55:50 41° NW 04:01:13 10° NNE
Cosmos 1741 Rocket 3.8 03:50:56 10° NNW 03:56:10 72° WSW 04:01:20 10° SSE
RUBIN 8/PSLV 4.5 03:52:12 10° NNE 03:56:34 85° WNW 03:58:15 38° SSW
CZ-2D R/B 4.0 03:57:35 10° NNW 04:00:17 15° NW 04:00:17 15° NW
Cosmos 2219 Rocket 4.2 03:58:37 10° NNW 04:03:26 27° NE 04:08:13 10° E
YAOGAN 6 3.8 04:01:40 10° NNE 04:05:09 43° E 04:08:35 10° S
Lacrosse 4 Rocket 1.4 04:07:07 18° NW 04:10:17 68° WSW 04:14:41 10° SSE
Cosmos 1484 Rocket 3.3 04:06:25 10° NNE 04:10:22 61° E 04:14:17 10° S
ARIANE 5 R/B 2.5 04:07:16 10° NNE 04:12:20 81° ESE 04:17:20 10° SSW
Helios 1B rocket 2.3 04:08:58 10° NNE 04:13:02 75° WNW 04:15:11 27° SSW
Meteor 1-27 Rocket 3.9 04:10:33 24° SW 04:14:00 58° WNW 04:19:53 10° N
CZ-2C R/B 2.5 04:10:17 10° S 04:15:31 67° WSW 04:20:55 10° NNW
Meteor 1-29 4.4 04:12:49 10° NNE 04:15:55 37° E 04:19:00 10° SSE
CZ-2C R/B 4.2 04:12:33 10° NNE 04:18:09 50° E 04:23:28 10° S
CENTAUR R/B 2.6 04:14:25 22° SW 04:18:34 84° SE 04:25:55 10° NE
Cosmos 2333 Rocket 3.5 04:14:35 10° NNW 04:20:01 42° NE 04:25:22 10° ESE
Cosmos 2100 Rocket 4.0 04:15:24 14° SSW 04:20:45 61° WNW 04:26:54 10° N
Cosmos 1110 Rocket 4.1 04:16:34 11° SSW 04:21:38 78° ESE 04:26:49 10° NNE
Cosmos 2016 Rocket 4.0 04:16:08 10° S 04:22:31 89° W 04:28:56 10° N
CZ-4C R/B 4.0 04:18:18 10° SSE 04:22:32 65° ENE 04:26:54 10° N
ADEOS II 3.8 04:19:59 10° NNW 04:22:54 15° NW 04:23:23 15° WNW
Cosmos 2082 Rocket 2.3 04:20:42 27° WSW 04:23:37 55° NW 04:29:10 10° NNE
COSMO-SKYMED 1 4.1 04:21:04 10° SE 04:25:06 39° ENE 04:29:10 10° N
Okean 1 3.3 04:23:13 22° SSW 04:25:43 62° WNW 04:29:43 10° N
Cosmos 1869 Rocket 3.4 04:22:28 10° NNW 04:26:56 81° W 04:31:19 10° S
Cosmos 2360 Rocket 2.7 04:21:36 10° NNW 04:27:12 63° NE 04:32:47 10° SE
CZ-2C R/B 2.7 04:22:56 10° N 04:27:42 47° WNW 04:30:30 22° SW
Cosmos 1452 Rocket 3.5 04:24:11 19° SW 04:27:58 69° WNW 04:33:17 10° NNE
Envisat 3.3 04:23:38 10° NNE 04:28:44 71° ESE 04:33:48 10° S
USA 307 3.1 04:27:02 29° WNW 04:28:59 61° N 04:33:04 10° ENE
Cosmos 968 Rocket 3.5 04:24:03 10° NNW 04:29:16 84° ENE 04:34:24 10° SSE
ERBS 3.6 04:28:31 21° NNW 04:29:29 26° N 04:31:59 10° ENE
Meteor 1-18 Rocket 4.4 04:24:00 10° S 04:29:39 75° E 04:35:15 10° NNE
Cosmos 1441 Rocket 4.3 04:30:49 24° WNW 04:30:49 24° WNW 04:33:53 10° N
Cosmos 1816 Rocket 4.4 04:27:34 10° NNW 04:33:41 61° W 04:39:41 10° S
TIMED 4.4 04:30:21 13° SSW 04:34:12 86° WNW 04:38:36 10° NNE
Orbus 7S? 3.8 04:33:42 28° W 04:35:34 67° NNW 04:42:34 10° ENE
Cosmos 489 Rocket 4.4 04:29:28 10° NNW 04:35:43 70° WSW 04:41:53 10° SSE
USA 306 3.1 04:35:54 23° WNW 04:38:16 60° N 04:42:20 10° E
H-2A R/B 3.2 04:36:06 10° NNE 04:39:43 58° E 04:43:21 10° S
SL-24 R/B - RUBIN 2 3.5 04:38:53 16° SW 04:42:18 89° SE 04:46:42 10° NE
Cosmos 2061 Rocket 3.9 04:36:41 10° SSW 04:42:52 77° W 04:49:07 10° N
PSLV R/B 4.3 04:40:39 10° NNE 04:44:55 56° E 04:49:08 10° S
Cosmos 1733 Rocket 3.7 04:41:30 10° N 04:45:55 60° ENE 04:50:15 10° SSE
ATLAS CENTAUR R/B 2.8 04:44:03 19° WNW 04:46:43 30° NNW 04:50:57 10° NNE
Cosmos 1459 Rocket 4.3 04:41:01 10° SW 04:47:05 45° WNW 04:53:12 10° N
COSMOS 2406 4.0 04:43:57 19° W 04:47:14 34° NW 04:52:24 10° NNE
Cosmos 2344 4.3 04:39:05 10° NW 04:47:31 78° NE 04:59:09 10° SE
Cosmos 1933 Rocket 4.4 04:44:54 10° NNW 04:48:39 27° W 04:52:21 10° SW
CZ-2D R/B 3.4 04:45:15 10° N 04:49:09 55° WNW 04:53:04 10° SSW
COSMOS 2428 4.3 04:45:59 10° NNW 04:51:17 37° NE 04:56:33 10° ESE
Meteor 2-4 Rocket 3.7 04:46:21 10° SSW 04:52:04 86° W 04:57:40 10° NNE
NOSS 3-2 (A) 3.5 04:48:58 15° WSW 04:53:42 67° NW 05:00:25 10° NE
NOSS 3-2 (C) 3.4 04:48:58 10° SW 04:54:31 82° SE 05:01:07 10° NE
IRS-1C 4.5 04:49:32 10° N 04:54:36 44° WNW 04:59:38 10° SW
Cosmos 1975 3.1 04:51:37 10° NNW 04:55:26 44° W 04:59:12 10° SSW
Cosmos 2322 Rocket 2.2 04:51:02 10° NW 04:56:39 61° WSW 05:02:12 10° SSE
Cosmos 2237 4.3 04:52:53 10° NW 04:58:28 56° WSW 05:04:00 10° S
Cosmos 1242 Rocket 2.5 04:55:57 10° NNW 04:59:20 52° W 05:02:38 10° S
SL-08 R/B 3.8 04:55:04 10° SSW 04:59:25 37° W 05:03:53 10° NNW
CZ-2C R/B 3.0 04:56:05 10° NNE 04:59:54 74° ESE 05:03:46 10° S
Cosmos 1980 Rocket4.405:05:11SW05:05:11SW04:55:50NW
Cosmos 2233 Rocket 4.0 04:57:30 10° SSW 05:03:50 75° WNW 05:10:10 10° N
USA 308 3.1 05:01:01 14° WNW 05:04:26 61° N 05:08:31 10° E
COSMOS 2455 2.8 05:00:10 10° NW 05:06:11 72° WSW 05:12:10 10° SSE
Cosmos 1378 4.1 05:04:37 12° SW 05:07:19 25° WNW 05:10:25 10° NNW
Cosmos 1805 3.2 05:04:35 10° NNW 05:08:29 83° W 05:12:21 10° S
Cosmos 44 Rocket 4.2 05:05:08 14° W 05:08:33 31° NNW 05:12:46 10° NNE
Tsikada Rocket 4.2 05:03:47 10° NNW 05:09:46 47° W 05:15:39 10° SSW
USA 238 DEB 3.7 05:03:51 10° SW 05:10:21 90° NW 05:17:20 10° NE
USA 238 3.7 05:03:58 10° SW 05:10:27 90° ESE 05:17:26 10° NE
ATLAS 5 CENTAUR R/B 3.2 05:06:41 10° NW 05:11:25 44° NE 05:17:07 10° ESE
SKYMED 2 3.5 05:08:46 10° S 05:13:06 77° WSW 05:17:29 10° NNW
CZ-4B R/B 4.0 05:08:49 10° NNE 05:14:04 68° ESE 05:19:20 10° S
Aureole 1 Rocket 3.8 05:12:15 10° NNW 05:16:03 43° ENE 05:19:11 10° SE
Cosmos 1725 Rocket 4.4 05:10:53 10° SW 05:16:53 44° WNW 05:22:56 10° N
GP-B 4.0 05:14:47 10° SW 05:18:33 27° W 05:22:22 10° NNW
ALOS 4.0 05:16:34 10° NNW 05:19:16 15° NW 05:21:56 10° W
Cosmos 1733 3.2 05:15:46 10° NNW 05:19:26 56° W 05:23:06 10° S
Cosmos 1461 3.7 05:18:37 10° WSW 05:22:21 35° NW 05:26:19 10° NNE
USA 290 2.5 05:20:49 10° NW 05:23:55 46° WSW 05:27:00 10° S
USA 305 3.0 05:20:38 10° WNW 05:24:43 67° N 05:28:49 10° E
Cosmos 2322 4.1 05:20:45 10° NNW 05:26:28 71° ENE 05:32:09 10° SE
SL-16 R/B 3.0 05:22:12 10° NW 05:26:56 28° WSW 05:31:40 10° SSW
NOAA 11 4.2 05:23:15 10° N 05:28:42 69° WNW 05:34:07 10° SSW
Cosmos 1766 3.4 05:25:06 10° N 05:29:05 82° E 05:33:01 10° SSE
Cosmos 1862 Rocket 3.6 05:26:03 10° S 05:30:32 86° W 05:35:00 10° N
USA 234 4.3 05:25:31 10° ENE 05:31:46 46° SE 05:38:00 10° SSW
SJ 16-02 2.0 05:29:41 10° NNW 05:34:03 61° ENE 05:38:23 10° SE
Cosmos 1908 Rocket 4.0 05:30:15 10° N 05:34:38 68° ENE 05:39:01 10° SSE
